TimeCST,TemperatureF,Dew PointF,Humidity,Sea Level PressureIn,VisibilityMPH,Wind Direction,Wind SpeedMPH,Gust SpeedMPH,PrecipitationIn,Events,Conditions,WindDirDegrees,DateUTC
12:52 AM,26.1,17.1,69,30.06,10.0,SSW,9.2,-,N/A,,Clear,200,2013-01-16 06:52:00
1:52 AM,25.0,17.1,72,30.03,10.0,South,8.1,-,N/A,,Clear,180,2013-01-16 07:52:00
2:52 AM,24.1,16.0,71,30.01,10.0,South,9.2,-,N/A,,Clear,170,2013-01-16 08:52:00
3:52 AM,21.0,15.1,78,29.99,10.0,SE,8.1,-,N/A,,Scattered Clouds,130,2013-01-16 09:52:00
4:52 AM,26.1,17.1,69,29.97,10.0,South,6.9,-,N/A,,Overcast,180,2013-01-16 10:52:00
5:22 AM,26.6,15.8,64,29.91,10.0,South,8.1,-,N/A,,Overcast,180,2013-01-16 11:22:00
5:52 AM,28.0,17.1,63,29.96,10.0,SSW,9.2,-,N/A,,Overcast,210,2013-01-16 11:52:00
6:52 AM,28.0,18.0,66,29.97,10.0,SSW,4.6,-,N/A,,Overcast,210,2013-01-16 12:52:00
7:52 AM,28.9,19.9,69,29.99,10.0,South,4.6,-,0.00,,Overcast,170,2013-01-16 13:52:00
8:52 AM,30.0,21.0,69,29.99,10.0,SSE,5.8,-,N/A,,Scattered Clouds,150,2013-01-16 14:52:00
9:52 AM,34.0,24.1,67,29.99,10.0,Calm,Calm,-,N/A,,Scattered Clouds,0,2013-01-16 15:52:00
10:52 AM,43.0,28.0,56,29.98,10.0,WNW,8.1,-,N/A,,Partly Cloudy,300,2013-01-16 16:52:00
11:52 AM,48.0,30.0,50,29.98,10.0,WNW,13.8,-,N/A,,Partly Cloudy,300,2013-01-16 17:52:00
12:52 PM,48.9,30.9,50,29.96,10.0,WNW,13.8,20.7,N/A,,Clear,300,2013-01-16 18:52:00
1:52 PM,50.0,30.9,48,29.96,10.0,WNW,10.4,-,N/A,,Clear,290,2013-01-16 19:52:00
2:52 PM,51.1,32.0,48,29.98,10.0,WNW,10.4,-,N/A,,Clear,290,2013-01-16 20:52:00
3:52 PM,52.0,30.9,45,29.99,10.0,WNW,13.8,-,N/A,,Clear,290,2013-01-16 21:52:00
4:52 PM,48.9,28.9,46,30.02,10.0,NW,10.4,-,N/A,,Clear,310,2013-01-16 22:52:00
5:52 PM,46.0,28.9,51,30.06,10.0,NW,16.1,23.0,N/A,,Partly Cloudy,320,2013-01-16 23:52:00
6:52 PM,42.1,30.0,62,30.11,10.0,NNW,11.5,-,N/A,,Clear,330,2013-01-17 00:52:00
7:52 PM,41.0,30.0,65,30.15,10.0,NW,11.5,-,N/A,,Mostly Cloudy,320,2013-01-17 01:52:00
8:52 PM,41.0,30.9,67,30.18,10.0,North,11.5,-,N/A,,Overcast,10,2013-01-17 02:52:00
9:52 PM,35.1,28.9,78,30.20,10.0,North,9.2,-,N/A,,Scattered Clouds,350,2013-01-17 03:52:00
10:52 PM,34.0,30.0,85,30.23,10.0,North,11.5,-,N/A,,Partly Cloudy,350,2013-01-17 04:52:00
11:52 PM,32.0,28.0,85,30.27,10.0,NNW,11.5,-,N/A,,Scattered Clouds,340,2013-01-17 05:52:00